Weather History for Lordsburg, NM

Change the Weather History Date:

Wednesday, January 22, 2014

  Actual Average Record
Temperature  
Mean Temperature 48 °F -  
Max Temperature 62 °F 57 °F 68 °F (2013)
Min Temperature 33 °F 26 °F 28 °F (2013)
Degree Days  
Heating Degree Days 18    
Moisture  
Dew Point 13 °F    
Average Humidity 28    
Maximum Humidity 44    
Minimum Humidity 15    
Precipitation  
Precipitation 0.00 in - - ()
Sea Level Pressure  
Sea Level Pressure 30.05 in    
Wind  
Wind Speed 4 mph (SW)    
Max Wind Speed 9 mph    
Max Gust Speed -    
Visibility 10 miles    
Events      
Averages and records for this station are not official NWS values.
T = Trace of Precipitation, MM = Missing Value Source: NWS Daily Summary

Daily Weather History Graph

Daily Weather History Graph

Search for Another Location

Airport:

Trip Planner

Search our weather history database for the weather conditions in past years. The results will help you decide how hot, cold, wet, or windy it might be!

Date:

Astronomy

Jan. 22, 2014 Rise Set
Actual Time 7:14 AM MST 5:38 PM MST
Civil Twilight 6:47 AM MST 6:05 PM MST
Nautical Twilight 6:18 AM MST 6:34 PM MST
Astronomical Twilight 5:48 AM MST 7:04 PM MST
Moon 11:49 PM MST (1/22) 10:40 AM MST (1/22)
Length of Visible Light 11h 17m
Length of Day
10h 24m
Waning Gibbous, 65% of the Moon is Illuminated
Jan 22
Waning Gibbous
Jan 23
Last Quarter
Jan 30
New
Feb 6
First Quarter
Feb 14
Full

Hourly Weather History & Observations

Time (MST) Temp. Windchill Dew Point Humidity Pressure Visibility Wind Dir Wind Speed Gust Speed Precip Events Conditions
12:15 AM 42.8 °F 37.5 °F 12.2 °F 29% 30.20 in 10.0 mi South 9.2 mph - N/A   Clear
12:35 AM 42.8 °F 38.0 °F 12.2 °F 29% 30.19 in 10.0 mi South 8.1 mph - N/A   Clear
12:55 AM 37.4 °F 34.9 °F 12.2 °F 36% 30.19 in 10.0 mi East 3.5 mph - N/A   Clear
1:15 AM 35.6 °F 32.8 °F 10.4 °F 35% 30.19 in 10.0 mi East 3.5 mph - N/A   Clear
1:35 AM 33.8 °F 30.8 °F 10.4 °F 38% 30.19 in 10.0 mi ESE 3.5 mph - N/A   Clear
1:55 AM 33.8 °F - 10.4 °F 38% 30.18 in 10.0 mi Calm Calm - N/A   Clear
2:15 AM 33.8 °F - 10.4 °F 38% 30.18 in 10.0 mi Calm Calm - N/A   Clear
2:55 AM 33.8 °F - 12.2 °F 41% 30.17 in 10.0 mi Calm Calm - N/A   Clear
3:35 AM 33.8 °F 30.8 °F 12.2 °F 41% 30.16 in 10.0 mi SE 3.5 mph - N/A   Clear
3:55 AM 33.8 °F - 12.2 °F 41% 30.16 in 10.0 mi Calm Calm - N/A   Clear
4:15 AM 33.8 °F - 12.2 °F 41% 30.15 in 10.0 mi Calm Calm - N/A   Clear
4:35 AM 33.8 °F - 12.2 °F 41% 30.15 in 10.0 mi Calm Calm - N/A   Clear
4:55 AM 33.8 °F - 12.2 °F 41% 30.14 in 10.0 mi Calm Calm - N/A   Clear
5:15 AM 33.8 °F 28.6 °F 12.2 °F 41% 30.14 in 10.0 mi South 5.8 mph - N/A   Clear
5:35 AM 33.8 °F 28.6 °F 12.2 °F 41% 30.14 in 10.0 mi South 5.8 mph - N/A   Clear
5:55 AM 35.6 °F 31.7 °F 12.2 °F 38% 30.14 in 10.0 mi SSE 4.6 mph - N/A   Clear
6:15 AM 35.6 °F - 14.0 °F 41% 30.14 in 10.0 mi Calm Calm - N/A   Clear
6:35 AM 33.8 °F - 12.2 °F 41% 30.13 in 10.0 mi Calm Calm - N/A   Clear
6:55 AM 33.8 °F 30.8 °F 14.0 °F 44% 30.12 in 10.0 mi SSE 3.5 mph - N/A   Clear
7:15 AM 35.6 °F 29.9 °F 14.0 °F 41% 30.12 in 10.0 mi South 6.9 mph - N/A   Clear
7:35 AM 35.6 °F 30.7 °F 14.0 °F 41% 30.12 in 10.0 mi South 5.8 mph - N/A   Clear
7:55 AM 35.6 °F - 14.0 °F 41% 30.12 in 10.0 mi Calm Calm - N/A   Clear
8:15 AM 37.4 °F 34.9 °F 14.0 °F 38% 30.12 in 10.0 mi East 3.5 mph - N/A   Clear
8:35 AM 41.0 °F 38.0 °F 14.0 °F 33% 30.12 in 10.0 mi ESE 4.6 mph - N/A   Clear
8:55 AM 42.8 °F 41.1 °F 14.0 °F 31% 30.13 in 10.0 mi ESE 3.5 mph - N/A   Clear
9:15 AM 44.6 °F 42.2 °F 15.8 °F 31% 30.12 in 10.0 mi SE 4.6 mph - N/A   Clear
9:35 AM 46.4 °F 44.3 °F 15.8 °F 29% 30.11 in 10.0 mi ESE 4.6 mph - N/A   Clear
10:15 AM 50.0 °F - 14.0 °F 24% 30.11 in 10.0 mi SSE 4.6 mph - N/A   Clear
10:35 AM 53.6 °F - 14.0 °F 21% 30.10 in 10.0 mi ESE 4.6 mph - N/A   Clear
10:55 AM 55.4 °F - 14.0 °F 20% 30.10 in 10.0 mi East 3.5 mph - N/A   Clear
11:15 AM 55.4 °F - 14.0 °F 20% 30.09 in 10.0 mi SSE 3.5 mph - N/A   Clear
11:35 AM 57.2 °F - 14.0 °F 18% 30.07 in 10.0 mi SE 3.5 mph - N/A   Clear
11:55 AM 59.0 °F - 14.0 °F 17% 30.06 in 10.0 mi Calm Calm - N/A   Clear
12:15 PM 59.0 °F - 14.0 °F 17% 30.04 in 10.0 mi Calm Calm - N/A   Clear
12:35 PM 60.8 °F - 14.0 °F 16% 30.01 in 10.0 mi SE 3.5 mph - N/A   Clear
12:55 PM 60.8 °F - 14.0 °F 16% 29.99 in 10.0 mi Calm Calm - N/A   Clear
1:15 PM 60.8 °F - 14.0 °F 16% 29.99 in 10.0 mi NW 4.6 mph - N/A   Clear
1:35 PM 62.6 °F - 14.0 °F 15% 29.98 in 10.0 mi North 4.6 mph - N/A   Clear
1:55 PM 62.6 °F - 14.0 °F 15% 29.97 in 10.0 mi WNW 4.6 mph - N/A   Clear
2:15 PM 62.6 °F - 14.0 °F 15% 29.97 in 10.0 mi NW 5.8 mph - N/A   Mostly Cloudy
2:35 PM 62.6 °F - 14.0 °F 15% 29.95 in 10.0 mi NW 6.9 mph - N/A   Overcast
2:55 PM 62.6 °F - 14.0 °F 15% 29.95 in 10.0 mi WNW 5.8 mph - N/A   Overcast
3:15 PM 62.6 °F - 14.0 °F 15% 29.95 in 10.0 mi West 4.6 mph - N/A   Mostly Cloudy
3:35 PM 62.6 °F - 14.0 °F 15% 29.94 in 10.0 mi WNW 3.5 mph - N/A   Mostly Cloudy
3:55 PM 62.6 °F - 14.0 °F 15% 29.94 in 10.0 mi WNW 5.8 mph - N/A   Scattered Clouds
4:15 PM 62.6 °F - 14.0 °F 15% 29.95 in 10.0 mi NW 5.8 mph - N/A   Scattered Clouds
4:35 PM 62.6 °F - 14.0 °F 15% 29.94 in 10.0 mi NNW 4.6 mph - N/A   Clear
4:55 PM 62.6 °F - 14.0 °F 15% 29.94 in 10.0 mi NW 5.8 mph - N/A   Clear
5:15 PM 60.8 °F - 14.0 °F 16% 29.94 in 10.0 mi North 3.5 mph - N/A   Scattered Clouds
5:55 PM 55.4 °F - 12.2 °F 18% 29.94 in 10.0 mi Calm Calm - N/A   Clear
6:15 PM 51.8 °F - 12.2 °F 21% 29.95 in 10.0 mi Calm Calm - N/A   Clear
6:35 PM 51.8 °F - 12.2 °F 21% 29.95 in 10.0 mi Calm Calm - N/A   Clear
6:55 PM 50.0 °F - 12.2 °F 22% 29.95 in 10.0 mi WNW 4.6 mph - N/A   Clear
7:15 PM 46.4 °F 44.3 °F 12.2 °F 25% 29.95 in 10.0 mi WNW 4.6 mph - N/A   Clear
7:35 PM 46.4 °F 43.5 °F 12.2 °F 25% 29.95 in 10.0 mi WNW 5.8 mph - N/A   Clear
7:55 PM 44.6 °F 41.4 °F 10.4 °F 25% 29.95 in 10.0 mi WNW 5.8 mph - N/A   Clear
8:15 PM 44.6 °F 42.2 °F 10.4 °F 25% 29.95 in 10.0 mi West 4.6 mph - N/A   Clear
8:35 PM 44.6 °F - 10.4 °F 25% 29.95 in 10.0 mi Calm Calm - N/A   Clear
8:55 PM 44.6 °F 42.2 °F 10.4 °F 25% 29.95 in 10.0 mi WSW 4.6 mph - N/A   Clear
9:15 PM 44.6 °F 43.1 °F 12.2 °F 27% 29.96 in 10.0 mi WNW 3.5 mph - N/A   Clear
9:35 PM 42.8 °F - 10.4 °F 27% 29.96 in 10.0 mi Calm Calm - N/A   Clear
9:55 PM 42.8 °F - 10.4 °F 27% 29.97 in 10.0 mi Calm Calm - N/A   Clear
10:15 PM 39.2 °F - 10.4 °F 31% 29.97 in 10.0 mi Calm Calm - N/A   Clear
10:35 PM 35.6 °F - 10.4 °F 35% 29.97 in 10.0 mi Calm Calm - N/A   Clear
10:55 PM 39.2 °F - 10.4 °F 31% 29.97 in 10.0 mi Calm Calm - N/A   Clear
11:15 PM 37.4 °F 34.9 °F 10.4 °F 33% 29.97 in 10.0 mi WSW 3.5 mph - N/A   Clear
11:35 PM 37.4 °F - 10.4 °F 33% 29.97 in 10.0 mi Calm Calm - N/A   Clear
11:55 PM 35.6 °F 32.8 °F 10.4 °F 35% 29.97 in 10.0 mi NW 3.5 mph - N/A   Clear